Retour au catalogue

STARLINK-36953

ActifCommunicationsVLEO
NORAD 68010·PAYLOAD·🇺🇸 United States

Lancé Feb 27, 2026 depuis Vandenberg Space Force Base

Loading…

Prochains Passages (prochaines 24 heures)

TLE

FraisSource: CelesTrak SupGP

Époque: Sep 14, 2026, 22:59 UTC

1 68010C 26039AA  26257.95812500  .00051578  00000+0  18683-2 0  2577
2 68010  43.0042  59.8530 0001515 275.5013  10.4924 15.27550259    17

Suivez STARLINK-36953 en temps réel avec AllMySat

Download on the App Store